Latest Weather Observations for Dunalley

IDT60901

Issued at 12:41 pm EDT Monday 2 February 2015 (issued every 10 minutes, with the page automatically refreshed every 10 minutes)

About weather observations | Map of Hobart area stations | Latest observations for Hobart area | Other Formats
Station Details ID: 094254 Name: DUNALLEY (STROUD POINT) Lat: -42.90 Lon: 147.79 Height: 12.43 m
Data from the previous 72 hours. | See also: Recent months at Dunalley
Date/Time
EDT
Tmp

°C
App
Tmp
°C
Dew
Point
°C
Rel
Hum
%
Delta-T

°C
Wind Press
QNH
hPa
Press
MSL
hPa
Rain
since
9 am
mm
Dir
 
Spd
km/h
Gust
km/h
Spd
kts
Gust
kts
02/12:30pm 17.1 12.6 10.2 64 3.6 SW 24 30 13 16 1019.5 1019.5 0.0
02/12:00pm 17.0 13.1 9.4 61 3.9 WSW 20 26 11 14 1019.7 1019.7 0.0
02/11:30am 16.0 11.5 8.7 62 3.7 WSW 22 30 12 16 1020.1 1020.1 0.0
02/11:00am 15.8 10.1 8.3 61 3.8 WSW 28 33 15 18 1020.3 1020.3 0.0
02/10:30am 15.4 10.0 7.9 61 3.8 WSW 26 35 14 19 1019.7 1019.7 0.0
02/10:00am 15.3 10.1 8.8 65 3.3 WSW 26 33 14 18 1019.2 1019.2 0.0
02/09:30am 15.1 9.7 9.5 69 2.9 WSW 28 33 15 18 1018.8 1018.8 0.0
02/09:00am 13.9 7.9 8.7 71 2.6 WSW 30 35 16 19 1018.8 1018.8 0.8
02/08:30am 14.6 9.1 9.0 69 2.8 SW 28 32 15 17 1018.7 1018.7 0.8
02/08:00am 14.2 7.7 9.0 71 2.6 SW 33 39 18 21 1018.4 1018.4 0.8
02/07:30am 13.6 7.0 8.7 72 2.5 SW 33 39 18 21 1018.0 1018.0 0.8
02/07:00am 13.5 7.3 9.9 79 1.8 SW 33 37 18 20 1017.7 1017.7 0.8
02/06:30am 13.3 6.9 9.2 76 2.1 SW 33 39 18 21 1017.5 1017.5 0.8
02/06:00am 13.3 7.1 9.9 80 1.7 SW 33 41 18 22 1017.2 1017.2 0.8
02/05:30am 12.9 6.8 9.9 82 1.5 SW 32 41 17 22 1017.1 1017.1 0.8
02/05:00am 12.7 7.6 10.6 87 1.1 SW 28 32 15 17 1017.0 1017.0 0.8
02/04:30am 12.8 7.2 10.3 85 1.3 SW 30 35 16 19 1017.0 1017.0 0.8
02/04:00am 12.6 5.5 10.8 89 0.9 SW 39 46 21 25 1017.1 1017.1 0.8
02/03:30am 13.3 8.1 10.1 81 1.7 SW 28 35 15 19 1017.1 1017.1 0.8
02/03:00am 13.2 8.1 10.6 84 1.4 SW 28 32 15 17 1017.2 1017.2 0.8
02/02:30am 12.9 8.0 11.3 90 0.8 WSW 28 33 15 18 1017.4 1017.4 0.8
02/02:00am 12.6 7.8 11.7 94 0.5 WSW 28 33 15 18 1017.4 1017.4 0.8
02/01:30am 12.3 9.1 11.8 97 0.3 WSW 20 24 11 13 1017.7 1017.7 0.8
02/01:00am 12.2 6.9 11.4 95 0.4 WSW 30 35 16 19 1017.9 1017.9 0.4
02/12:30am 12.7 8.9 11.1 90 0.8 SW 22 28 12 15 1017.7 1017.7 0.0
02/12:00am 12.5 9.1 11.1 91 0.7 SW 20 24 11 13 1017.7 1017.7 0.0
 
Date/Time
EDT
Tmp

°C
App
Tmp
°C
Dew
Point
°C
Rel
Hum
%
Delta-T

°C
Wind Press
QNH
hPa
Press
MSL
hPa
Rain
since
9 am
mm
Dir
 
Spd
km/h
Gust
km/h
Spd
kts
Gust
kts
01/11:30pm 12.8 7.8 11.0 89 0.9 SW 28 37 15 20 1017.9 1017.9 0.0
01/11:00pm 12.9 10.0 11.0 88 1.0 SSW 17 20 9 11 1017.8 1017.8 0.0
01/10:30pm 12.7 7.7 10.9 89 0.9 SW 28 35 15 19 1018.0 1018.0 0.0
01/10:00pm 13.5 9.9 9.7 78 1.9 SW 19 22 10 12 1017.9 1017.9 0.0
01/09:30pm 13.4 9.5 9.5 77 2.0 SW 20 24 11 13 1017.8 1017.8 0.0
01/09:00pm 13.4 8.2 10.4 82 1.6 SSW 28 33 15 18 1017.5 1017.5 0.0
01/08:30pm 13.8 8.4 9.6 76 2.2 SSW 28 39 15 21 1017.2 1017.2 0.0
01/08:00pm 13.9 8.2 8.5 70 2.7 SSW 28 35 15 19 1016.9 1016.9 0.0
01/07:30pm 13.9 7.4 8.1 68 2.9 SSW 32 41 17 22 1016.8 1016.8 0.0
01/07:00pm 14.2 7.8 9.2 72 2.5 SSW 33 44 18 24 1016.4 1016.4 0.0
01/06:30pm 14.0 7.8 9.4 74 2.4 SSW 32 37 17 20 1016.1 1016.1 0.0
01/06:00pm 13.9 7.7 9.5 75 2.2 SW 32 37 17 20 1015.9 1015.9 0.0
01/05:30pm 13.9 7.2 9.7 76 2.2 SSW 35 43 19 23 1015.8 1015.8 0.0
01/05:00pm 14.5 8.9 10.1 75 2.3 SW 30 33 16 18 1015.7 1015.7 0.0
01/04:30pm 14.0 7.9 9.6 75 2.3 SW 32 41 17 22 1015.8 1015.8 0.0
01/04:00pm 13.4 6.1 10.2 81 1.7 SSW 39 44 21 24 1015.7 1015.7 0.0
01/03:30pm 13.6 6.4 10.4 81 1.7 SW 39 50 21 27 1015.5 1015.5 0.0
01/03:00pm 14.2 7.2 10.0 76 2.2 SSW 37 43 20 23 1015.3 1015.3 0.0
01/02:30pm 14.5 7.8 9.7 73 2.5 SW 35 43 19 23 1015.2 1015.2 0.0
01/02:00pm 14.1 7.4 9.5 74 2.4 SSW 35 43 19 23 1015.1 1015.1 0.0
01/01:30pm 14.2 7.8 9.2 72 2.5 SSW 33 41 18 22 1015.1 1015.1 0.0
01/01:00pm 14.2 7.9 9.6 74 2.4 SSW 33 39 18 21 1015.0 1015.0 0.0
01/12:30pm 14.2 7.6 10.0 76 2.2 SSW 35 50 19 27 1015.1 1015.1 0.0
01/12:00pm 14.2 7.5 9.6 74 2.4 SW 35 44 19 24 1015.1 1015.1 0.0
01/11:30am 14.3 8.1 10.1 76 2.2 SSW 33 39 18 21 1014.8 1014.8 0.0
01/11:00am 14.0 7.4 10.0 77 2.1 SW 35 43 19 23 1014.8 1014.8 0.0
01/10:30am 13.8 7.3 9.0 73 2.4 SW 33 41 18 22 1014.6 1014.6 0.0
01/10:00am 14.0 7.9 9.6 75 2.3 SW 32 43 17 23 1014.4 1014.4 0.0
01/09:30am 13.4 8.3 10.6 83 1.5 SW 28 35 15 19 1014.2 1014.2 0.0
01/09:00am 13.3 6.7 10.1 81 1.7 SSW 35 48 19 26 1014.0 1014.0 2.6
01/08:30am 13.4 7.4 10.0 80 1.8 SW 32 39 17 21 1013.5 1013.5 2.6
01/08:00am 13.0 6.7 9.8 81 1.6 SW 33 39 18 21 1013.1 1013.1 2.6
01/07:30am 12.4 7.1 11.3 93 0.6 SSW 30 37 16 20 1013.0 1013.0 2.6
01/07:00am 12.1 7.4 10.8 92 0.7 SSW 26 32 14 17 1012.8 1012.8 2.4
01/06:30am 12.5 5.9 11.4 93 0.6 SW 37 44 20 24 1012.5 1012.5 2.4
01/06:00am 12.8 7.2 11.5 92 0.7 SSW 32 41 17 22 1012.1 1012.1 2.4
01/05:30am 13.0 7.3 11.2 89 0.9 SW 32 39 17 21 1012.1 1012.1 2.4
01/05:00am 12.4 6.1 11.1 92 0.7 SSW 35 43 19 23 1011.9 1011.9 2.4
01/04:30am 13.2 7.7 11.8 91 0.7 SSW 32 39 17 21 1011.9 1011.9 2.2
01/04:00am 12.9 7.3 11.6 92 0.7 SSW 32 37 17 20 1011.8 1011.8 2.2
01/03:30am 12.8 7.8 12.2 96 0.3 SSW 30 39 16 21 1011.9 1011.9 2.2
01/03:00am 12.7 7.3 12.1 96 0.3 SW 32 39 17 21 1011.9 1011.9 1.8
01/02:30am 12.7 7.2 11.9 95 0.4 SW 32 35 17 19 1011.8 1011.8 1.6
01/02:00am 12.7 7.5 11.6 93 0.6 SSW 30 37 16 20 1012.1 1012.1 1.6
01/01:30am 13.3 7.7 11.5 89 1.0 SW 32 39 17 21 1012.1 1012.1 1.6
01/01:00am 13.3 7.6 11.7 90 0.9 SW 33 39 18 21 1012.3 1012.3 1.6
01/12:30am 13.4 7.8 11.5 88 1.0 SW 32 37 17 20 1012.4 1012.4 1.6
01/12:00am 13.7 7.8 11.0 84 1.4 SSW 33 39 18 21 1012.5 1012.5 1.6
 
Date/Time
EDT
Tmp

°C
App
Tmp
°C
Dew
Point
°C
Rel
Hum
%
Delta-T

°C
Wind Press
QNH
hPa
Press
MSL
hPa
Rain
since
9 am
mm
Dir
 
Spd
km/h
Gust
km/h
Spd
kts
Gust
kts
31/11:30pm 13.7 7.8 11.2 85 1.3 SW 33 39 18 21 1012.5 1012.5 1.6
31/11:00pm 14.2 7.9 11.0 81 1.7 SW 35 43 19 23 1012.5 1012.5 1.6
31/10:30pm 14.4 9.0 11.0 80 1.8 SSW 30 37 16 20 1012.5 1012.5 1.6
31/10:00pm 14.4 9.5 11.2 81 1.7 SSW 28 35 15 19 1012.5 1012.5 1.6
31/09:30pm 14.3 8.5 10.7 79 1.9 SSW 32 39 17 21 1012.3 1012.3 1.6
31/09:00pm 14.3 8.5 10.9 80 1.8 SSW 32 39 17 21 1012.1 1012.1 1.6
31/08:30pm 14.3 8.4 11.1 81 1.7 SSW 33 46 18 25 1011.8 1011.8 1.6
31/08:00pm 14.3 9.0 11.3 82 1.6 SSW 30 35 16 19 1011.8 1011.8 1.6
31/07:30pm 14.4 8.8 12.1 86 1.2 SSW 33 41 18 22 1011.5 1011.5 1.6
31/07:00pm 14.2 8.1 11.7 85 1.3 SSW 35 43 19 23 1011.3 1011.3 1.6
31/06:30pm 14.4 8.1 12.3 87 1.1 SSW 37 48 20 26 1011.1 1011.1 1.4
31/06:00pm 14.4 8.4 12.1 86 1.2 SSW 35 44 19 24 1011.0 1011.0 1.4
31/05:30pm 14.5 9.6 12.4 87 1.1 SSW 30 43 16 23 1010.7 1010.7 1.4
31/05:00pm 14.3 8.9 12.9 91 0.8 SSW 33 41 18 22 1010.7 1010.7 1.4
31/04:30pm 14.2 8.1 13.1 93 0.6 SSW 37 46 20 25 1010.5 1010.5 1.4
31/04:00pm 14.3 8.7 13.3 94 0.6 SSW 35 43 19 23 1010.5 1010.5 1.4
31/03:30pm 14.2 9.2 13.4 95 0.4 SSW 32 39 17 21 1010.4 1010.4 1.2
31/03:00pm 14.5 9.0 13.7 95 0.4 SSW 35 41 19 22 1010.4 1010.4 1.2
31/02:30pm 14.1 8.6 13.5 96 0.3 SSW 35 41 19 22 1010.5 1010.5 1.0
31/02:00pm 14.4 9.0 13.9 97 0.3 SSW 35 41 19 22 1010.5 1010.5 1.0
31/01:30pm 14.1 9.2 13.6 97 0.3 SSW 32 37 17 20 1010.7 1010.7 1.0
31/01:00pm 14.3 8.9 13.8 97 0.3 SSW 35 41 19 22 1010.7 1010.7 0.6
31/12:30pm 14.2 8.3 13.7 97 0.3 SSW 37 43 20 23 1010.7 1010.7 0.4
31/12:00pm 14.2 8.7 13.6 96 0.3 SSW 35 43 19 23 1010.8 1010.8 0.2
31/11:30am 14.3 9.2 13.2 93 0.6 SSW 32 39 17 21 1011.1 1011.1 0.0
31/11:00am 14.6 9.2 12.8 89 1.0 SSW 33 39 18 21 1011.1 1011.1 0.0
31/10:30am 14.5 9.0 12.5 88 1.1 SSW 33 41 18 22 1011.0 1011.0 0.0
31/10:00am 14.4 8.6 12.6 89 1.0 SSW 35 44 19 24 1011.2 1011.2 0.0
31/09:30am 14.4 8.6 12.6 89 1.0 SSW 35 44 19 24 1011.3 1011.3 0.0
31/09:00am 14.2 9.1 13.1 93 0.6 SSW 32 39 17 21 1011.2 1011.2 0.4
31/08:30am 14.1 9.0 13.1 94 0.6 SSW 32 39 17 21 1011.2 1011.2 0.4
31/08:00am 14.2 9.1 13.2 94 0.6 SSW 32 43 17 23 1011.0 1011.0 0.4
31/07:30am 14.1 8.8 13.0 93 0.6 SSW 33 39 18 21 1010.9 1010.9 0.4
31/07:00am 14.1 9.0 13.0 93 0.6 SSW 32 39 17 21 1010.9 1010.9 0.4
31/06:30am 14.0 8.8 12.9 93 0.6 SSW 32 39 17 21 1010.9 1010.9 0.4
31/06:00am 14.2 9.0 12.8 91 0.8 SSW 32 39 17 21 1010.8 1010.8 0.4
31/05:30am 14.0 8.8 12.9 93 0.6 SSW 32 39 17 21 1010.6 1010.6 0.4
31/05:00am 14.1 8.4 13.0 93 0.6 SSW 35 44 19 24 1010.5 1010.5 0.4
31/04:30am 14.1 8.9 13.3 95 0.4 SSW 33 41 18 22 1010.6 1010.6 0.4
31/04:00am 14.1 8.4 13.1 94 0.6 SSW 35 41 19 22 1010.9 1010.9 0.2
31/03:30am 13.8 8.7 13.0 95 0.4 SSW 32 39 17 21 1011.2 1011.2 0.2
31/03:00am 13.7 8.5 12.8 94 0.5 SSW 32 39 17 21 1011.5 1011.5 0.2
31/02:30am 13.9 9.5 13.0 94 0.5 SSW 28 35 15 19 1011.6 1011.6 0.2
31/02:00am 13.8 8.9 12.5 92 0.7 SSW 30 35 16 19 1012.0 1012.0 0.2
31/01:30am 13.9 9.1 12.8 93 0.6 SSW 30 37 16 20 1012.3 1012.3 0.2
31/01:00am 13.7 8.9 12.9 95 0.4 SSW 30 37 16 20 1012.6 1012.6 0.2
31/12:30am 13.9 8.1 12.8 93 0.6 SSW 35 43 19 23 1012.7 1012.7 0.2
31/12:00am 13.6 8.3 12.5 93 0.6 SSW 32 37 17 20 1012.9 1012.9 0.2
 
Date/Time
EDT
Tmp

°C
App
Tmp
°C
Dew
Point
°C
Rel
Hum
%
Delta-T

°C
Wind Press
QNH
hPa
Press
MSL
hPa
Rain
since
9 am
mm
Dir
 
Spd
km/h
Gust
km/h
Spd
kts
Gust
kts
30/11:30pm 13.4 8.9 12.6 95 0.4 SSW 28 33 15 18 1013.4 1013.4 0.2
30/11:00pm 13.5 8.3 12.7 95 0.4 SSW 32 39 17 21 1013.7 1013.7 0.2
30/10:30pm 13.7 8.0 11.8 88 1.0 SSW 33 46 18 25 1014.0 1014.0 0.2
30/10:00pm 13.8 8.2 11.5 86 1.2 SSW 32 39 17 21 1014.2 1014.2 0.2
30/09:30pm 14.1 7.9 11.3 83 1.5 SSW 35 43 19 23 1014.2 1014.2 0.2
30/09:00pm 14.4 8.6 10.8 79 1.9 SSW 32 37 17 20 1014.4 1014.4 0.2
30/08:30pm 14.6 8.7 11.2 80 1.8 S 33 43 18 23 1014.5 1014.5 0.2
30/08:00pm 14.3 7.4 10.3 77 2.1 SSW 37 48 20 26 1014.5 1014.5 0.2
30/07:30pm 14.5 7.7 10.5 77 2.1 SSW 37 46 20 25 1014.5 1014.5 0.2
30/07:00pm 14.6 8.7 10.4 76 2.2 SSW 32 48 17 26 1014.6 1014.6 0.2
30/06:30pm 14.6 8.6 10.0 74 2.4 SSW 32 39 17 21 1014.8 1014.8 0.2
30/06:00pm 14.9 9.6 9.7 71 2.7 S 28 39 15 21 1014.9 1014.9 0.2
30/05:30pm 14.7 11.3 11.3 80 1.8 S 20 26 11 14 1015.4 1015.4 0.2
30/05:00pm 15.2 9.7 10.6 74 2.4 S 30 39 16 21 1015.8 1015.8 0.2
30/04:30pm 14.4 9.2 11.6 83 1.5 SSE 30 43 16 23 1015.9 1015.9 0.2
30/04:00pm 15.4 10.0 11.0 75 2.3 S 30 43 16 23 1016.0 1016.0 0.2
30/03:30pm 15.9 10.5 10.9 72 2.7 S 30 37 16 20 1016.2 1016.2 0.2
30/03:00pm 14.8 9.1 11.0 78 2.0 S 32 41 17 22 1016.5 1016.5 0.2
30/02:38pm 14.5 9.0 11.7 83 1.5 S 32 52 17 28 1016.7 1016.7 0.0
30/02:30pm 15.3 9.5 10.9 75 2.3 S 32 43 17 23 1016.7 1016.7 0.0
30/02:00pm 16.1 10.4 11.1 72 2.7 S 32 41 17 22 1016.8 1016.8 0.0
30/01:30pm 15.7 9.6 9.6 67 3.2 S 32 41 17 22 1016.9 1016.9 0.0
30/01:00pm 15.6 9.7 11.0 74 2.4 S 33 44 18 24 1017.1 1017.1 0.0

Latest Capital City Observations: Canberra | Sydney | Melbourne | Brisbane | Adelaide | Perth | Hobart | Darwin

Other Formats:

Comma delimited format used in spreadsheet applications
http://www.bom.gov.au/fwo/IDT60901/IDT60901.94951.axf

JavaScript Object Notation format (JSON) in row-major order
http://www.bom.gov.au/fwo/IDT60901/IDT60901.94951.json